Location: Barcelona
(41.3830°N, 2.1830°E)
Time: 02:10:37
(UTC+02:00)

ISS - Pass Details

Date: 26 July 2019
Orbit: 410 x 420 km, 51.6° (Epoch: 19 August)

Event Time Altitude Azimuth Distance (km) Brightness Sun altitude
Rises 01:03:50 0° 309° (NW) 2,368 0.8 -27.8°
Reaches altitude 10° 01:06:02 10° 318° (NW) 1,499 -0.2 -27.9°
Enters shadow 01:07:17 19° 330° (NNW) 1,054 -1.0 -28.0°
